[[{"header":{"parameterUnit":"m.s-1","parameterCategory":1,"la1":30.2991,"la2":30.254,"lo1":-89.0895,"lo2":-89.0444,"dy":0.0017,"dx":0.0017,"nx":28,"ny":28,"refTime":"2025-03-24T09:00:00:Z","depth":0,"parameterNumber":2,"parameterNumberName":"U-component_of_WINDS"},"data":[0,0,0,0,0,0,0,0,0,0,0,0,0,0,0,0,0,0,0,0,0,0,0,0,0,0,0,0,0,0,0,0,0,0,0,0,0,0,0,0,0,0,0,0,0,0,0,0,0,0,0,0,0,0,0,0,0,0,1.2771,1.2773,0,1.2915,1.2916,1.2918,1.293,1.2929,1.2927,1.2926,1.3075,1.308,1.3086,0,0,0,0,0,0,0,0,0,0,0,0,0,1.251,1.2514,1.2771,1.2773,1.2775,1.2914,1.2916,1.2918,1.2931,1.2929,1.2927,1.2925,1.3073,1.308,1.3086,0,0,0,0,0,0,0,0,0,0,0,0,0,1.2635,1.2516,1.2771,1.2798,1.2801,1.2914,1.2916,1.2919,1.2931,1.2929,1.2926,1.2924,1.3071,1.3079,1.3087,1.3183,0,0,1.3112,1.3115,0,0,0,0,0,0,0,0,1.2628,1.2645,1.2792,1.2796,1.28,1.2902,1.2879,1.3008,1.2932,1.2882,1.2926,1.2923,1.302,1.3032,1.3064,1.319,1.3197,1.3113,1.3118,1.3121,1.3123,0,0,0,0,0,0,0,1.2619,1.2639,1.2828,1.2794,1.2799,1.2803,1.2818,1.2903,1.2962,1.2886,1.2887,1.2904,1.3022,1.3056,1.3067,1.3199,1.3112,1.312,1.3125,1.3128,1.3411,1.3413,0,0,0,0,0,0,1.2605,1.2631,1.2823,1.2832,1.2707,1.281,1.2827,1.2872,1.2961,1.2972,1.2906,1.2904,1.3043,1.3058,1.3073,1.3191,1.3121,1.3129,1.3133,1.3408,1.3411,1.3414,0,0,0,0,0,0,1.26,1.2622,1.2818,1.2732,1.2757,1.2817,1.2867,1.2876,1.291,1.2976,1.2987,1.293,1.3042,1.3061,1.3155,1.3196,1.3132,1.314,1.3405,1.3409,1.3413,1.3427,0,0,0,0,0,0,1.2592,1.262,1.2657,1.2733,1.2762,1.2897,1.287,1.288,1.2924,1.2923,1.3002,1.3012,1.3042,1.3143,1.3163,1.3206,1.3146,1.3402,1.3407,1.3411,1.3423,1.3431,1.3438,0,0,0,0,0,1.2583,1.2656,1.2659,1.2682,1.2809,1.29,1.2916,1.2948,1.2927,1.2965,1.3007,1.301,1.3188,1.3153,1.3176,1.3221,1.3399,1.3405,1.3411,1.342,1.3429,1.3438,0,0,0,0,0,0,1.2585,1.2667,1.2671,1.2771,1.2828,1.2902,1.295,1.2957,1.3022,1.3018,1.3055,1.3073,1.3165,1.3203,1.3162,1.3318,1.3292,1.3302,1.3291,1.33,1.3307,1.3296,1.3153,0,0,0,0,0,1.2597,1.2663,1.2731,1.2813,1.2841,1.2891,1.2931,1.295,1.3012,1.3036,1.3085,1.3145,1.3214,1.3259,1.3327,1.3429,1.3446,1.3471,1.3478,1.3484,1.3493,1.3549,1.356,1.3434,1.3434,1.3433,0,0,1.2623,1.2675,1.2715,1.2815,1.2861,1.2929,1.2911,1.2984,1.3035,1.3048,1.3139,1.3177,1.3246,1.3344,1.339,1.3378,1.3532,1.3492,1.3496,1.3502,1.3556,1.3568,1.3578,1.3438,1.3437,1.3436,0,0,1.2704,1.2751,1.2824,1.287,1.294,1.2973,1.299,1.3063,1.3088,1.318,1.319,1.3252,1.3371,1.3419,1.3459,1.3558,1.3563,1.3579,1.3616,1.367,1.368,1.3689,1.3724,1.3736,1.3587,1.3587,1.3588,0,1.2727,1.2829,1.286,1.2933,1.2976,1.2989,1.3063,1.3107,1.3196,1.3226,1.3212,1.336,1.3408,1.3517,1.354,1.3573,1.3594,1.357,1.3676,1.3686,1.3694,1.3728,1.374,1.3589,1.3589,1.3589,1.3588,0,1.2854,1.2925,1.2975,1.3059,1.3108,1.3181,1.3223,1.3269,1.3284,1.3318,1.3411,1.3468,1.3547,1.3574,1.359,1.3685,1.3676,1.3668,1.3642,1.3707,1.3739,1.3752,1.3591,1.359,1.359,1.359,0,0,1.2941,1.3041,1.3059,1.3097,1.3175,1.323,1.3303,1.3379,1.3418,1.3479,1.3541,1.364,1.3634,1.3679,1.37,1.3748,1.3821,1.3734,1.3737,1.3748,1.3928,1.3933,1.3947,1.3824,1.3827,1.3829,1.3922,0,1.3031,1.316,1.319,1.3302,1.3367,1.338,1.3444,1.3499,1.3532,1.3593,1.363,1.3699,1.3685,1.3713,1.376,1.3802,1.3857,1.3795,1.3883,1.3885,1.3864,1.3964,1.3969,1.4055,1.3935,1.3937,1.3939,0,1.3153,1.3215,1.3332,1.3401,1.3429,1.3486,1.3557,1.3615,1.3678,1.3698,1.3749,1.3765,1.3841,1.3811,1.3917,1.3874,1.3912,1.3938,1.3942,1.3951,1.3916,1.3975,1.4083,1.4095,1.3959,1.3957,1.3956,0,1.3203,1.3316,1.3401,1.3433,1.3516,1.3555,1.3591,1.3651,1.3695,1.3757,1.3786,1.3857,1.3896,1.3951,1.3986,1.3961,1.4089,1.4062,1.4108,1.4107,1.4135,1.4132,1.4249,1.416,1.4159,1.4159,1.4159,0,1.33,1.3371,1.3425,1.3477,1.3557,1.359,1.3669,1.3705,1.3759,1.3818,1.3835,1.389,1.3933,1.3995,1.4022,1.4106,1.4123,1.4142,1.4149,1.4141,1.4138,1.4165,1.416,1.4163,1.4162,1.4161,1.4161,0,1.3369,1.3409,1.3502,1.3571,1.359,1.3646,1.3706,1.3757,1.379,1.3866,1.3885,1.3938,1.4011,1.4051,1.4143,1.4162,1.4255,1.4259,1.4233,1.4236,1.428,1.4275,1.4418,1.4438,1.4335,1.4336,1.4337,0,1.3428,1.3483,1.3558,1.3599,1.3635,1.3701,1.3744,1.3779,1.3825,1.3899,1.3941,1.4015,1.4076,1.4193,1.4239,1.431,1.4315,1.436,1.4326,1.4315,1.4315,1.4311,1.4316,1.4366,1.4367,1.4368,1.4368,0,1.3528,1.3544,1.3606,1.3675,1.3727,1.3783,1.3839,1.3871,1.3916,1.3966,1.404,1.4087,1.4181,1.4254,1.4328,1.4365,1.4374,1.4379,1.4393,1.4385,1.4368,1.4377,1.4249,1.4375,1.4375,1.4374,1.4374,1.4373,1.3593,1.3642,1.3702,1.3771,1.3816,1.3868,1.3919,1.3958,1.402,1.4098,1.4115,1.4194,1.4254,1.4354,1.4394,1.4456,1.4447,1.4468,1.4474,1.4478,1.4479,1.4358,1.447,1.447,1.4469,1.4469,1.4469,0,1.3693,1.3732,1.3795,1.3871,1.3925,1.3928,1.399,1.4035,1.4103,1.4158,1.4217,1.4303,1.4373,1.4425,1.4497,1.4537,1.4543,1.4555,1.4552,1.456,1.4483,1.4463,1.4549,1.4549,1.4549,1.4549,1.4549,1.4549,1.3751,1.3833,1.3857,1.3962,1.4001,1.4077,1.4111,1.4159,1.4203,1.4297,1.4355,1.4388,1.4442,1.4518,1.4583,1.4597,1.4622,1.4633,1.4647,1.4574,1.4566,1.4558,1.4539,1.4639,1.4639,1.4719,1.472,1.472]},{"header":{"parameterUnit":"m.s-1","parameterCategory":1,"la1":30.2991,"la2":30.254,"lo1":-89.0895,"lo2":-89.0444,"dy":0.0017,"dx":0.0017,"nx":28,"ny":28,"refTime":"2025-03-24T09:00:00:Z","depth":0,"parameterNumber":3,"parameterNumberName":"V-component_of_WINDS"},"data":[0,0,0,0,0,0,0,0,0,0,0,0,0,0,0,0,0,0,0,0,0,0,0,0,0,0,0,0,0,0,0,0,0,0,0,0,0,0,0,0,0,0,0,0,0,0,0,0,0,0,0,0,0,0,0,0,0,0,3.119,3.1191,0,3.1254,3.1255,3.1255,3.1216,3.1214,3.1212,3.121,3.1271,3.1274,3.1278,0,0,0,0,0,0,0,0,0,0,0,0,0,3.1029,3.1032,3.119,3.1191,3.1192,3.1254,3.1255,3.1256,3.1216,3.1214,3.1212,3.121,3.127,3.1274,3.1278,0,0,0,0,0,0,0,0,0,0,0,0,0,3.1096,3.1033,3.119,3.118,3.1179,3.1254,3.1255,3.1256,3.1217,3.1214,3.1211,3.1208,3.1269,3.1274,3.1278,3.1365,0,0,3.1294,3.1296,0,0,0,0,0,0,0,0,3.1092,3.1102,3.118,3.118,3.118,3.1224,3.122,3.1292,3.1217,3.1202,3.121,3.1207,3.1257,3.1263,3.1281,3.1368,3.137,3.1294,3.1297,3.1299,3.1301,0,0,0,0,0,0,0,3.1088,3.1099,3.1215,3.1181,3.1181,3.117,3.1177,3.1233,3.1244,3.1203,3.1201,3.1209,3.1257,3.1276,3.1282,3.1371,3.1294,3.1299,3.1302,3.1304,3.1532,3.1535,0,0,0,0,0,0,3.1085,3.1095,3.1213,3.1217,3.1129,3.1175,3.1182,3.1213,3.1244,3.1246,3.1211,3.1207,3.1269,3.1276,3.1284,3.1388,3.1299,3.1304,3.1307,3.1529,3.1532,3.1536,0,0,0,0,0,0,3.1081,3.1095,3.121,3.1156,3.1169,3.1181,3.1215,3.1216,3.1235,3.125,3.1251,3.123,3.1267,3.1277,3.1345,3.139,3.1306,3.1311,3.1525,3.153,3.1534,3.1596,0,0,0,0,0,0,3.1077,3.1095,3.1129,3.1157,3.1173,3.1273,3.1218,3.1219,3.1244,3.1239,3.1267,3.1269,3.1266,3.1338,3.1351,3.1395,3.1315,3.1521,3.1527,3.1533,3.159,3.1602,3.1613,0,0,0,0,0,3.1071,3.1143,3.1131,3.1145,3.1216,3.1275,3.1284,3.128,3.1248,3.1282,3.1291,3.1269,3.1382,3.1346,3.1359,3.1406,3.1518,3.1526,3.1532,3.1585,3.16,3.1613,0,0,0,0,0,0,3.1118,3.1146,3.1133,3.1216,3.1244,3.1269,3.1311,3.1296,3.1331,3.1325,3.1317,3.1323,3.1395,3.1406,3.1365,3.1491,3.1445,3.1455,3.1481,3.1495,3.1506,3.1502,3.1319,0,0,0,0,0,3.1138,3.1186,3.1207,3.1278,3.1293,3.13,3.1325,3.132,3.1347,3.1358,3.1373,3.1399,3.144,3.1468,3.1507,3.1591,3.1597,3.163,3.1641,3.165,3.1659,3.1704,3.172,3.1558,3.1558,3.1558,0,0,3.118,3.1202,3.1232,3.1288,3.1309,3.1357,3.131,3.1362,3.1398,3.1366,3.1432,3.1443,3.1472,3.1549,3.1583,3.1561,3.1704,3.1659,3.1666,3.167,3.1713,3.1728,3.1742,3.1563,3.1562,3.1561,0,0,3.1282,3.1303,3.1365,3.1387,3.1419,3.1423,3.1438,3.1465,3.1472,3.1538,3.1515,3.1556,3.1628,3.1649,3.1669,3.1778,3.1759,3.1791,3.185,3.1894,3.1907,3.1918,3.1958,3.1972,3.1799,3.18,3.18,0,3.133,3.1403,3.1398,3.1453,3.1478,3.1453,3.1515,3.1535,3.1578,3.1595,3.157,3.166,3.1677,3.1759,3.1785,3.1802,3.1818,3.1788,3.1906,3.1917,3.1927,3.1965,3.198,3.1803,3.1803,3.1803,3.1802,0,3.146,3.1511,3.1557,3.1602,3.1631,3.1689,3.1692,3.1722,3.1713,3.172,3.1787,3.1807,3.185,3.1868,3.1859,3.1948,3.1934,3.1907,3.1861,3.1947,3.1982,3.1996,3.1809,3.1807,3.1806,3.1805,0,0,3.1595,3.1636,3.1653,3.1672,3.1706,3.1744,3.18,3.1844,3.187,3.19,3.1946,3.2007,3.1983,3.2006,3.1999,3.2038,3.2124,3.2007,3.2007,3.2029,3.2223,3.2244,3.2261,3.211,3.2113,3.2115,3.2221,0,3.1699,3.18,3.1797,3.189,3.1937,3.1912,3.1961,3.1986,3.1992,3.2032,3.2038,3.2082,3.2046,3.206,3.2097,3.2106,3.2163,3.2097,3.2153,3.2155,3.2148,3.2279,3.2302,3.2402,3.2235,3.2237,3.2239,0,3.1835,3.1872,3.197,3.1997,3.2016,3.2061,3.21,3.2138,3.2165,3.2167,3.2193,3.218,3.2235,3.2186,3.2262,3.2218,3.2239,3.2247,3.225,3.2257,3.2203,3.229,3.2433,3.2449,3.226,3.2259,3.2257,0,3.1925,3.1998,3.2067,3.2084,3.2117,3.2148,3.2163,3.2187,3.2214,3.2247,3.2264,3.2302,3.2324,3.2353,3.235,3.2316,3.2427,3.2379,3.243,3.2431,3.2456,3.2455,3.2606,3.2468,3.2468,3.2468,3.2467,0,3.2043,3.2105,3.2108,3.215,3.2218,3.2212,3.2278,3.2289,3.2311,3.2354,3.2333,3.2373,3.2366,3.2406,3.2403,3.2467,3.2476,3.2479,3.2478,3.2482,3.2482,3.2497,3.2491,3.2472,3.2471,3.247,3.2469,0,3.2156,3.216,3.2234,3.2259,3.2266,3.2315,3.2335,3.2375,3.2379,3.2434,3.2446,3.2453,3.2498,3.2498,3.2549,3.2547,3.2625,3.2615,3.2617,3.2616,3.2668,3.2663,3.2835,3.2858,3.2704,3.2705,3.2707,0,3.2232,3.2279,3.2309,3.2337,3.2355,3.24,3.2427,3.2422,3.2451,3.2485,3.252,3.2563,3.2599,3.2672,3.2681,3.272,3.2712,3.2769,3.2717,3.272,3.2714,3.2712,3.2717,3.278,3.2781,3.2783,3.2784,0,3.2367,3.2367,3.2407,3.2449,3.2483,3.2515,3.2544,3.2568,3.2566,3.2599,3.2646,3.2674,3.2727,3.277,3.2808,3.2821,3.2802,3.28,3.2814,3.282,3.2819,3.2821,3.2646,3.2796,3.2795,3.2794,3.2794,3.2793,3.2464,3.2505,3.2533,3.2579,3.2601,3.2629,3.2667,3.2677,3.2717,3.2762,3.2755,3.2808,3.2832,3.2881,3.2897,3.2937,3.2917,3.2937,3.2943,3.2948,3.2955,3.2812,3.2944,3.2944,3.2943,3.2943,3.2943,0,3.2599,3.2616,3.2658,3.2701,3.2737,3.2717,3.2748,3.2779,3.2827,3.2852,3.2887,3.2941,3.2984,3.2995,3.3036,3.3066,3.3058,3.3076,3.3075,3.3078,3.297,3.2955,3.3082,3.3082,3.3082,3.3082,3.3082,3.3082,3.2673,3.2742,3.2745,3.2823,3.2839,3.2892,3.2912,3.2937,3.2957,3.3019,3.3055,3.3063,3.3082,3.3124,3.3161,3.3163,3.3179,3.3202,3.32,3.31,3.3086,3.3073,3.3058,3.3205,3.3205,3.3305,3.3306,3.3307]}]]